ONEWEB-0630, 56072

Orbit data source: Space-Track

ONEWEB-0630, 56072 is a payload satellite owned by One Web (NAA) (UK) in LEO that was launched on Sun, 26 Mar 2023 UTC via a LVM3 launch vehicle from the Sirharikota (SRI). Payloads include a variety of satellites, spacecraft, and rockets equipped with specific instruments for various scientific and technological missions. These include communications satellites like Starlink; space stations such as the ISS; scientific satellites like the Hubble; Earth observation satellites from companies like Planet Labs, Umbra, and HawkEye 360; GPS; miniature CubeSats for education and research; and military/defense satellites.

Loading next visibility...
ONEWEB-0630 details
Identifier
56072, 2023-043AC
Orbit
LEO
Last TLE update17 hours ago
Origin
Flag of UKOne Web (NAA) (UK)
ManufacturerOne Web
MissionOperational Commercial Communications
Bus & MotorARROW, Unknown motor
Mass148 kg wet, ~140 kg dry
Launch date (UTC)
2023-03-26 (2 years ago)
Launch vehicle
LVM3
Launch site
Sirharikota (SRI)
Object type
Payload
Rocket body
Debris
Shape & HBRTrap Box + 2 Pan, 5 m
Radar Cross Section2.032 m², Medium (>0.1 m² and < 1m²)

Expand to show TLE details & history

TLE from 17 hours ago
0 ONEWEB-0630
1 56072U 23043AC  25014.91961304 -.00000070  00000-0 -21900-3 0  9991
2 56072  87.9076   2.3944 0001664  97.1040 263.0279 13.15546976 88281
Epoch: 2025-01-14T22:04Z
Definitive object data (Epoch: 2025-01-14T22:04:14.566Z)
Latitude-0.00009°
Longitude-83.28569°
Altitude1,204.826 km
Speed7.252 km/s
True Right ascension00h 09m 34s
True Declination0° 00' 00"
Sunlit
Object was in daylight at TLE epoch
Visualization TLE readout
Latitude85.54016°
Longitude68.79578°
Altitude1,214.325 km
Speed7.254 km/s
Apparent Right ascension04h 07m 00s
Apparent Declination35° 43' 26"
Sunlit
Object is in daylight
Visualization observer readout
Local Sidereal Time15:39:16
Azimuth354.201° N
Elevation-14.091°
Doppler factor1
Orbital elements
Apogee altitude1,200.15 km
Perigee altitude1,197.628 km
Semi-major axis7,577.026 km
Eccentricity0.0001664
Inclination87.9076°
RAAN2.3944°
Arg. of periapsis97.104°
True anomaly263.00897°
Mean anomaly263.0279°
Eccentric anomaly263.01844°
Mean motion3.29075 °/min
BSTAR-0.000219
Orbital period109.4 mins
Loading maneuver chart data...
Loading historical data...
Loading historical data...
Loading historical data...
Loading historical data...
Loading historical data...
Loading historical data...
Loading historical data...

ONEWEB-0630 Visibility forecast

Observer location: undefined°, undefined

Span
Click to sort rows by Start time (UTC) header in descending order
Start Az.
Max El. time (UTC)
Max El. Az.
Max El.
End time (UTC)
End Az.
9 mins2025-01-15 21:56:29.549Z114.34° SE2025-01-15 22:00:29.549Z78.844° E18.816°2025-01-15 22:05:29.549Z33.162° NE
13 mins2025-01-15 23:43:29.549Z189.444° SSW2025-01-15 23:49:29.549Z260.161° W43.323°2025-01-15 23:56:29.549Z355.707° N
6 mins2025-01-16 09:24:29.549Z51.773° ENE2025-01-16 09:26:29.549Z69.613° E14.325°2025-01-16 09:30:29.549Z103.726° ESE
13 mins2025-01-16 11:11:29.549Z359.567° N2025-01-16 11:17:29.549Z180.999° SSW44.899°2025-01-16 11:24:29.549Z181.609° SSW
5 mins2025-01-16 13:03:29.549Z308.619° NW2025-01-16 13:05:29.549Z290.813° WNW14.393°2025-01-16 13:08:29.549Z264.382° W
|